SCP
0 0 0 0 0 0 0 0 0 0 0 0 0 0 0 0 0 0 0 0 0 1 1 1 1 1 1 1 1 1 0 0 0 0 0 0 0 0 1 1 1 1 1
0 0 0 0 0 0 0 0 0 0 0 0 0 0 0 0 0 0 0 0 0 0 1 1 1 1 1 1 1 1 0 0 0 0 0 0 0 0 1 1 1 1 1
0 0 0 0 0 0 0 0 0 0 0 0 0 0 0 0 0 0 0 0 0 0 0 0 0 0 0 0 0 0 0 0 0 0 0 0 0 0 0 1 1 1 1
0 0 0 0 0 0 0 0 0 0 0 0 0 0 0 0 0 0 0 0 0 0 0 0 0 0 0 0 0 0 0 0 0 0 0 0 0 0 0 1 1 1 1
0 0 0 0 0 0 0 0 0 0 0 0 0 0 0 0 0 0 0 0 0 0 0 0 0 0 0 0 0 0 0 0 0 0 0 0 0 0 0 0 0 1 1
0 0 0 0 0 0 0 0 0 0 0 0 0 0 0 0 0 0 0 0 0 0 0 0 0 0 0 0 0 0 0 0 0 0 0 0 0 0 0 0 0 0 1
0 0 0 0 0 0 0 0 0 0 0 0 0 0 0 0 0 0 0 0 0 0 0 0 0 0 0 0 0 0 0 0 0 0 0 0 0 0 0 0 0 0 1
0 0 0 0 0 0 0 0 0 0 0 0 0 0 0 0 0 0 0 0 0 0 0 0 0 0 0 0 0 0 0 0 0 0 0 1 0 0 0 0 0 0 1
0 0 0 0 0 0 0 0 0 0 0 0 0 0 0 0 0 0 0 0 0 0 0 0 0 0 0 0 0 0 0 0 0 0 0 0 1 0 0 0 0 1 1
0 0 0 0 0 0 0 0 0 0 0 0 0 0 0 0 0 0 0 0 0 0 0 0 0 0 0 0 0 0 0 0 0 0 0 0 0 0 1 1 1 1 2
0 0 0 0 0 0 0 0 0 0 0 0 0 0 0 0 0 0 0 0 0 0 0 0 0 0 0 0 0 0 0 0 0 0 0 0 0 0 1 1 1 1 2
0 0 0 0 0 0 0 0 0 0 0 0 0 0 0 0 0 0 0 0 0 0 0 0 0 0 0 0 0 0 0 0 0 0 0 0 0 0 0 1 1 1 1
1 1 1 0 0 0 0 0 0 0 0 0 0 0 0 0 0 0 0 0 0 0 0 0 0 0 0 0 0 0 0 0 0 0 0 0 0 0 0 1 1 1 1
1 1 1 1 0 0 0 0 0 0 0 0 0 0 0 0 0 0 0 0 0 0 0 0 0 0 0 0 0 0 0 0 0 0 0 0 0 0 0 1 1 1 1
1 1 1 1 1 0 0 0 0 0 0 0 0 0 0 0 0 0 0 0 0 0 0 0 0 0 0 0 0 0 0 0 0 0 0 0 0 0 1 1 0 0 0
2 2 1 1 1 1 0 0 0 0 0 0 0 0 0 0 0 0 0 0 0 0 0 0 0 0 0 0 0 0 0 0 0 0 0 0 0 0 1 1 1 0 0
2 2 2 1 1 1 0 0 0 0 0 0 0 0 0 0 0 0 0 0 0 0 0 0 0 0 0 0 0 0 0 0 0 0 0 0 0 0 0 1 1 1 0
3 3 2 2 1 1 0 0 0 0 0 0 0 0 0 0 0 0 0 0 0 0 0 0 0 0 0 0 0 0 0 0 0 0 0 0 0 0 0 0 0 0 0
4 3 3 2 1 1 1 0 0 0 0 0 0 0 0 0 0 0 0 0 0 0 1 1 1 1 0 0 0 0 0 0 0 0 0 0 0 0 0 0 0 0 0
3 3 3 2 1 1 1 0 0 0 0 0 0 0 0 0 0 0 0 0 0 0 0 1 1 1 1 0 0 0 0 0 0 0 0 0 0 0 0 0 0 0 0
2 2 2 2 1 1 0 0 0 0 0 0 0 0 0 0 0 0 0 0 0 0 0 0 1 1 1 0 0 0 0 0 0 0 0 0 0 0 0 0 0 0 0
1 1 1 1 1 0 0 0 0 0 0 0 0 0 0 0 0 0 0 0 0 0 0 0 0 0 0 0 0 0 0 0 0 0 0 0 0 0 0 0 0 0 0
1 1 1 1 0 0 0 0 0 0 0 0 0 0 0 0 0 0 0 0 0 0 0 0 0 0 0 0 0 0 0 0 0 0 0 0 0 0 0 0 0 0 0
1 1 0 0 0 0 0 0 0 0 0 0 0 0 0 0 0 0 0 0 0 0 0 0 0 0 0 0 0 0 0 0 0 0 0 0 0 0 0 0 0 0 0
0 0 0 0 0 0 0 0 0 0 0 0 0 0 0 0 0 0 0 0 0 0 0 0 0 0 0 0 0 1 1 0 0 0 0 0 0 0 0 0 0 0 0
0 0 0 0 0 0 0 0 0 0 0 0 0 0 0 0 0 0 0 0 0 0 0 0 0 0 0 0 0 1 1 1 0 0 0 0 0 0 0 0 0 0 0
Wind_Speed
2 3 3 3 3 3 3 3 3 5 5 6 5 6 7 7 7 6 6 12 13 12 12 12 12 11 11 11 11 11 11 10 10 10 9 9 9 8 8 7 6 6 5
2 2 3 3 3 3 3 3 4 4 3 4 5 5 6 6 6 6 6 8 12 13 13 12 12 12 11 11 11 11 11 10 10 10 9 8 8 7 7 7 6 5 5
2 2 2 3 3 2 3 2 4 3 3 3 4 5 5 5 5 6 6 4 6 10 12 12 12 12 11 11 11 11 10 10 10 10 9 8 7 7 6 6 6 6 5
2 2 2 2 2 2 2 2 2 2 3 2 3 3 4 3 4 5 4 5 4 4 8 11 11 11 11 10 10 10 10 10 10 10 9 8 7 6 6 6 6 6 6
1 2 1 2 2 2 2 2 2 2 3 3 3 3 3 3 3 3 4 5 5 4 5 7 9 10 11 11 10 10 10 10 10 10 10 9 7 6 6 6 6 6 6
1 2 2 2 2 2 2 2 3 2 1 1 2 3 3 2 2 3 3 4 4 5 5 5 4 6 9 10 10 9 9 9 9 9 10 9 8 7 7 6 6 6 6
1 2 1 2 2 2 2 2 2 3 2 1 2 2 3 2 3 2 2 2 4 4 3 4 3 3 4 7 9 9 9 9 9 9 9 9 9 8 8 7 7 7 6
1 1 2 2 2 2 2 2 2 2 2 2 1 1 2 3 2 2 2 2 2 3 3 4 4 4 4 3 7 9 9 9 9 9 9 9 9 8 7 7 7 7 7
1 1 2 2 2 2 2 2 2 2 2 2 1 2 1 0 1 2 2 1 2 2 2 2 3 4 4 4 4 6 8 8 8 8 8 8 8 7 7 6 6 6 6
1 1 2 2 2 2 2 3 2 2 2 2 1 1 2 2 1 1 2 1 1 2 2 2 3 3 4 3 5 8 8 8 8 8 8 8 7 7 7 6 6 5 5
2 1 2 2 2 2 2 2 2 2 2 1 1 1 1 1 2 1 1 1 1 1 1 2 2 2 3 3 4 7 7 7 7 7 8 8 7 7 7 7 6 5 5
2 2 2 2 2 2 2 2 2 2 2 1 1 1 1 1 1 1 1 1 0 1 1 1 1 2 2 3 5 7 7 6 6 7 7 7 7 7 7 7 6 5 5
2 2 2 2 2 2 2 2 2 2 2 2 1 1 1 1 1 1 1 1 0 0 1 1 1 1 2 2 3 4 5 5 6 6 6 6 6 6 6 6 6 5 5
1 2 2 1 1 1 2 2 2 2 2 2 2 1 1 1 1 1 1 1 1 1 1 1 1 2 2 2 4 2 3 5 5 5 5 5 5 6 6 5 5 5 6
1 1 2 2 2 2 2 2 2 2 2 1 1 2 1 1 1 1 1 2 3 2 0 1 1 1 1 2 2 2 3 6 4 4 5 5 5 5 5 5 4 5 5
2 2 2 2 2 2 2 2 1 1 2 1 0 0 1 1 1 1 1 2 2 3 2 1 1 1 1 1 2 2 2 3 4 4 4 4 4 5 5 4 4 4 4
3 3 2 2 2 2 2 2 2 2 2 2 2 1 1 1 1 1 1 1 1 2 2 1 0 0 0 1 1 2 2 1 2 4 4 4 4 4 4 3 3 3 4
3 3 3 3 2 2 2 3 3 2 2 2 1 1 1 1 1 1 1 2 1 2 2 2 1 1 1 2 2 2 2 1 1 3 3 3 4 4 4 3 3 3 3
3 3 3 3 2 2 3 3 3 2 2 2 2 2 2 2 2 1 2 2 1 1 2 2 2 1 1 1 2 2 2 2 2 1 1 1 2 3 4 4 4 3 3
3 3 3 3 2 2 3 2 2 3 2 2 1 1 1 2 2 2 2 2 2 2 2 2 2 2 1 1 2 2 2 1 2 1 1 0 1 1 2 3 3 4 4
3 3 3 3 2 2 2 2 3 3 3 2 2 2 1 1 2 2 1 2 2 2 2 2 2 2 2 2 2 2 3 2 2 2 2 1 1 1 0 1 1 3 3
4 3 3 3 3 2 1 2 3 4 3 3 2 2 1 2 1 1 1 3 3 3 3 3 3 4 3 3 3 3 3 3 3 1 3 2 2 2 1 1 3 2 2
4 4 4 4 4 3 3 3 4 4 3 2 2 2 1 1 2 1 2 3 2 3 4 5 4 4 4 3 4 4 3 4 3 2 3 3 2 2 2 1 2 1 2
5 4 4 4 3 3 4 4 4 5 3 3 2 2 2 2 1 1 1 1 1 1 2 4 4 4 4 4 4 4 4 4 4 2 3 4 2 3 2 1 2 1 1
5 5 4 4 4 4 5 5 4 3 3 3 3 2 2 1 2 1 2 2 1 1 1 2 3 2 3 4 4 3 3 3 3 2 2 4 3 3 3 2 2 3 2
5 4 4 4 5 4 6 6 5 3 3 3 2 2 2 1 0 2 4 3 3 2 2 2 2 3 3 2 4 4 3 4 4 3 1 3 3 3 3 2 2 2 3
Wind_Direction
103 102 100 100 91 92 102 88 83 79 72 68 66 64 68 62 62 60 65 54 46 48 54 57 56 57 58 58 58 55 53 54 53 55 55 55 55 57 57 57 57 55 53
104 104 104 101 91 87 88 98 88 83 77 72 67 64 62 63 59 61 62 71 58 47 47 51 53 55 56 57 57 56 55 55 53 51 49 50 53 56 58 57 55 55 54
121 112 103 101 96 102 104 89 90 89 88 87 78 66 66 58 57 59 58 52 69 65 50 47 47 50 53 55 55 56 55 53 52 49 46 46 50 53 55 58 57 56 56
111 109 112 104 101 100 101 100 99 103 101 90 76 66 69 70 61 57 62 65 53 55 69 55 46 44 47 50 53 54 53 51 50 46 42 43 48 54 53 56 56 54 53
141 137 125 128 128 127 117 117 106 103 99 93 90 81 68 66 62 60 62 62 64 56 65 79 64 48 43 43 45 47 49 48 47 43 39 40 47 57 55 54 53 53 51
133 122 149 159 139 133 130 130 118 110 99 113 107 94 85 85 76 59 57 62 55 54 49 52 67 74 54 39 36 39 42 44 43 41 39 40 43 49 54 55 54 52 51
144 130 162 149 157 148 143 148 140 143 153 162 154 129 114 87 73 79 58 58 67 57 56 57 43 41 75 66 40 32 34 38 40 41 40 43 44 48 50 52 50 49 48
149 153 178 166 163 156 161 157 162 178 157 204 239 222 170 141 111 87 79 54 56 74 54 50 50 48 36 48 59 38 30 31 34 37 38 41 45 48 46 45 45 44 44
158 175 188 179 171 180 169 178 182 198 195 193 270 298 289 58 121 118 83 80 58 53 56 42 38 34 39 38 45 51 33 27 29 34 35 37 40 40 40 39 38 39 40
163 177 179 182 174 180 172 189 182 198 218 204 183 295 325 8 283 145 138 99 52 36 36 37 28 28 30 34 47 42 38 29 28 32 32 33 38 37 34 31 32 35 38
147 174 183 180 172 179 181 180 183 207 212 234 216 186 179 225 270 267 154 146 141 110 59 34 30 26 28 32 31 43 40 32 29 28 27 27 29 30 30 29 31 32 35
155 168 179 184 181 183 180 184 185 187 212 210 231 208 219 233 237 250 243 210 151 102 104 58 25 34 34 39 43 42 39 33 27 24 22 20 21 24 25 26 30 34 35
160 165 181 189 183 176 170 178 178 174 178 193 215 221 252 266 277 269 265 270 266 166 127 134 84 54 40 36 51 38 48 33 23 21 18 19 18 15 18 23 29 33 32
157 157 174 176 164 162 166 166 183 176 178 182 194 210 250 264 256 260 277 274 262 238 169 75 89 57 41 41 40 332 55 44 19 14 11 14 15 15 20 25 31 33 29
151 161 165 160 154 168 173 174 186 174 178 190 192 197 224 228 225 245 254 275 285 281 303 94 67 60 36 42 26 2 29 51 29 12 9 12 16 20 24 29 33 31 27
150 162 162 163 156 162 159 166 177 171 168 148 198 242 231 230 197 206 235 267 283 289 293 9 5 46 27 5 33 346 26 70 40 24 21 18 18 19 21 27 28 25 21
168 171 176 175 157 156 156 157 164 158 175 168 171 187 194 245 219 208 219 241 272 282 269 289 332 359 294 330 5 323 341 350 57 49 30 23 21 15 13 16 15 15 16
182 185 174 170 166 172 174 170 172 175 189 198 197 200 199 178 218 237 228 228 243 266 268 280 278 295 309 331 322 313 317 332 352 65 47 32 24 19 11 8 9 11 10
182 185 184 181 185 191 194 190 187 191 197 202 207 215 223 208 211 202 221 234 239 237 261 266 281 314 288 308 294 289 288 301 304 121 126 81 37 21 21 22 22 16 13
190 192 191 194 197 201 201 199 204 207 207 206 220 235 251 247 246 232 223 237 238 233 242 258 270 270 276 292 281 280 278 277 300 312 347 345 99 74 40 33 30 25 21
200 194 194 194 195 208 205 215 208 213 213 209 214 228 241 347 357 328 295 261 238 239 241 255 265 271 272 276 280 280 282 279 277 305 290 288 275 283 168 82 25 20 15
203 195 197 196 196 192 123 235 244 215 218 216 219 226 186 183 167 202 305 318 303 272 263 257 262 268 280 285 294 284 281 282 282 310 291 290 297 300 309 339 52 38 1
199 200 204 204 208 175 160 193 236 243 229 231 236 228 217 187 233 236 190 215 241 270 285 282 278 282 289 294 284 277 280 289 297 326 289 277 277 284 295 37 69 34 344
196 203 207 207 204 178 165 184 211 233 226 221 232 239 221 205 151 306 268 247 264 251 254 262 282 297 305 308 291 284 283 274 271 283 291 283 289 290 287 272 146 201 293
201 203 201 203 201 185 164 173 201 214 218 216 220 229 241 232 81 313 262 254 256 284 48 11 342 329 341 326 302 272 267 266 271 255 271 284 290 292 281 263 194 191 233
204 203 200 205 205 200 164 174 205 215 219 215 215 212 198 248 150 269 258 255 259 266 259 225 230 232 242 250 271 273 278 274 281 276 276 283 288 294 280 262 279 254 246